Powrót do katalogu

CZ-4B DEB

AktywnyLEO
NORAD 40530·DEBRIS·🇨🇳 China

Wystrzelony Oct 25, 2013 z Jiuquan Satellite Launch Center

Loading…

Następne Przeloty (najbliższe 24 godziny)

TLE

ŚwieżeSource: Space-Track

Epoka: Sep 14, 2026, 05:50 UTC

1 40530U 13057C   26257.24333400  .00001626  00000-0  27685-3 0  9995
2 40530  75.0466  97.3022 0169421 305.7691  52.7827 14.60707846605374

Śledź CZ-4B DEB w czasie rzeczywistym z AllMySat

Download on the App Store